FENGYUN 1C DEB

Satellite information

Favourite Embed

Satellite Type and Status

DEBRISIN ORBIT

Key statistics

Satellite FENGYUN 1C DEB at a glance.

Uptime

9669

Days in orbit

Revolutions

≈ 14.4

Per day

Orbit

SSO

Sun Synchronous Orbit

Inclination

98.9

Latest

Satellite identification and parameters

Extended collection of information and parameters for FENGYUN 1C DEB.

Object identification

Identified? True

Debris? True

Object name: FENGYUN 1C DEB

International designator: 1999-025BHA

Object number (NORAD): 31148

Object ID (CCSDS): 31148

Country: PEOPLES REPUBLIC OF CHINA (PRC)

Current information (Y/N): Y

RCS size: SMALL

Orbital parameters

Period: 99.793 minutes

Inclination: 98.8667 deg

SMA: 7126.778 km

Apoapsis: 844.865 km

Periapsis: 652.42 km

RAAN: 185.366 deg

Eccentricy: 0.0135016

Argument of periapsis: 184.8497 deg

Mean anomaly: 175.1393 deg

Mean motion: 14.42988777 rev/day

Mean motion (dot): 0.00003503 rev/day2

B* drag term: 0.00095112312 1/REarth

Two-line elements (TLE)

Creation date: Oct. 28, 2025, 7:11 p.m.

Reference frame: TEME

Reference center: EARTH

Epoch: Oct. 28, 2025, 3:20 p.m. UTC

TLE line 0: 0 FENGYUN 1C DEB

TLE line 1: 1 31148U 99025BHA 25301.63915883 .00003503 00000-0 95112-3 0 9998

TLE line 2: 2 31148 98.8667 185.3660 0135016 184.8497 175.1393 14.42988777968806

Live tracking on map

Real-time ground track for satellite FENGYUN 1C DEB.

In-orbit conjunctions

A list of the most updated potential collisions computed for object FENGYUN 1C DEB.

Target Orbit TCA Probability of collision Miss distance Type
SL-16 DEB LEO 2024-11-16 22:22:52 0.0001677029 922.0 (m) DEBRIS
FENGYUN 1C DEB SSO 2024-09-02 14:59:21 0.0001123001 894.0 (m) DEBRIS
IRIDIUM 920 LEO 2024-08-30 14:46:29 0.0002471459 512.0 (m) PAYLOAD

Associated space launch

Chinese polar orbiting meteorological satellite

FENGYUN 1C DEB was lifted into orbit during the mission ‘Long March 4B | Feng Yun 1C’, on board a Long March 4B space rocket.

The launch took place on May 10, 1999, 1:33 a.m. from Launch Complex 7.

For more information about the launch, click the button.

Launch to space Long March 4B | Feng Yun 1C
Long March 4B | Feng Yun 1C

Agency: N/A

Status: Launch Successful

Launch date: May 10, 1999, 1:33 a.m. UTC

Rocket: Long March 4B

Launch pad: Launch Complex 7

Location: Taiyuan Satellite Launch Center, People's Republic of China

...

Latest news about this satellite

There are no fresh news available about this satellite. Check back as we update our databases every day.


Newsletter sign-up

Weekly statistics, charts and insights to help you stay on top of the space industry.